#timestamp,LO_Frequency,Hit 
1505624415.0,286047004.8,N
1505624415.9,286047004.8,N
1505624435.8,286047001.3,N
1505624455.6,286047005.9,N
1505624475.4,286047002.9,N
1505624495.2,286047003.7,N
1505624515.1,286047001.3,N
1505624516.0,286047001.3,N
1505624535.8,286047002.3,N
1505624555.6,286047005.8,N
1505624575.5,286047005.0,N
1505624595.3,286047009.1,P
1505624615.1,286047003.1,N
1505624635.9,286047001.8,N
1505624655.7,286046997.3,N
1505624675.5,286047002.8,N
1505624695.4,286047005.2,N
1505624715.2,286047002.4,N
1505624735.0,286046999.1,N
1505624735.9,286046999.1,N
1505624755.8,286046999.1,N
1505624775.6,286047002.0,N
1505624795.4,286047003.9,N
1505624815.3,286047001.8,N
1505624835.1,286047005.7,N
1505624836.0,286047005.7,N
1505624855.8,286047006.3,N
1505624875.7,286047007.0,N
1505624895.5,286047004.8,N
1505624915.3,286047003.3,N
1505624935.1,286047004.9,N
1505624955.9,286047004.7,N
1505624975.7,286047002.5,N
1505624995.5,286046995.7,N
1505625015.4,286046994.4,N
1505625035.2,286046991.7,N
1505625055.0,286046990.7,N
1505625055.9,286046990.7,N
1505625075.8,286046990.8,N
1505625095.6,286046992.8,N
1505625115.4,286046989.0,N
1505625135.3,286046985.6,N
1505625155.1,286046985.5,N
1505625156.0,286046985.5,N
1505625175.8,286046985.1,N
1505625195.7,286046985.2,N
1505625215.5,286046986.4,N
1505625235.3,286046987.5,N
1505625255.2,286046988.0,N
1505625275.9,286046991.3,N
1505625295.7,286046993.8,N
1505625315.5,286046998.2,N
1505625335.4,286047002.2,N
1505625355.2,286047002.3,N
1505625375.0,286047000.7,N
1505625375.9,286047000.7,N
1505625395.8,286046998.8,N
1505625415.6,286047000.5,N
1505625435.4,286047000.5,N
1505625455.3,286046996.8,N
1505625475.1,286046995.4,N
1505625495.8,286046992.1,N
1505625515.7,286046993.1,N
1505625535.5,286046991.1,N
1505625555.3,286046993.4,N
1505625575.2,286046998.8,N
1505625595.9,286046996.9,N
1505625615.7,286046995.1,N
1505625635.6,286046991.7,N
1505625655.4,286046999.6,N
1505625675.2,286047002.6,N
1505625695.0,286046996.7,N
1505625696.0,286046996.7,N
1505625715.8,286046997.1,N
1505625735.6,286046999.4,N
1505625755.4,286046995.9,N
1505625775.3,286046997.7,N
1505625795.1,286047000.9,N
1505625815.8,286046998.9,N
1505625835.7,286047002.8,N
1505625855.5,286047002.8,N
1505625875.3,286046997.4,N
1505625895.2,286046996.6,N
1505625915.9,286046997.2,N
1505625935.7,286046995.5,N
1505625955.6,286046993.2,N
1505625975.4,286046991.6,N
1505625995.2,286046987.5,P
1505626015.1,286046991.2,N
1505626016.0,286046991.2,N
1505626035.8,286046989.5,P
1505626055.6,286046998.0,N
1505626075.5,286046998.1,N
1505626095.3,286046995.5,N
1505626115.1,286046997.7,N
1505626135.9,286047001.1,N
1505626155.7,286047002.9,N
1505626175.5,286047007.3,N
1505626195.4,286047005.0,N
1505626215.2,286047004.3,N
1505626235.0,286047002.8,N
1505626235.9,286047002.8,N
1505626255.7,286047001.6,N
1505626275.6,286047001.8,N
1505626295.4,286047003.9,N
1505626315.2,286047005.7,N
1505626335.1,286047004.8,N
1505626336.0,286047004.8,N
1505626355.8,286047005.3,N
1505626375.6,286047005.5,N
1505626395.5,286047004.0,N
1505626415.3,286047004.4,N
1505626435.1,286047002.9,N
1505626455.9,286046999.0,N
1505626475.7,286047000.4,N
1505626495.5,286046998.8,N
1505626515.4,286046998.7,N
1505626535.2,286047004.3,N
1505626555.0,286047003.4,N
1505626555.9,286047003.4,N
1505626575.8,286047003.5,N
1505626595.6,286047005.5,N
1505626615.4,286047005.9,N
1505626635.2,286047001.0,N
1505626655.1,286047005.4,N
1505626656.0,286047005.4,N
1505626675.8,286047004.1,N
1505626695.6,286047002.3,N
1505626715.5,286046999.9,N
1505626735.3,286047000.0,N
1505626755.1,286046998.4,N
1505626775.9,286047000.0,N
1505626795.7,286047002.8,N
1505626815.5,286047000.2,N
1505626835.4,286047001.6,N
1505626855.2,286047001.9,N
1505626875.0,286047003.9,N
1505626875.9,286047003.9,N
1505626895.8,286047007.7,P
1505626915.6,286047006.7,N
1505626935.4,286047009.9,P
1505626955.3,286047012.2,P
1505626975.1,286047006.0,N
1505626995.8,286047004.2,N
1505627015.7,286047004.2,N
1505627035.5,286047001.8,N
1505627055.3,286046998.9,N
1505627075.2,286046999.9,N
1505627095.9,286047004.8,N
1505627115.7,286047005.9,N
1505627135.6,286047004.8,N
1505627155.4,286047004.1,N
1505627175.2,286047004.3,N
1505627195.0,286047006.0,N
1505627196.0,286047006.0,N
1505627215.8,286047009.2,P
1505627235.6,286047001.9,N
1505627255.5,286047000.4,N
1505627275.3,286046999.8,N
1505627295.1,286047002.7,N
1505627315.9,286046997.2,N
1505627335.7,286046998.9,N
1505627355.5,286046995.0,N
1505627375.3,286046998.8,N
1505627395.2,286047001.2,N
1505627415.0,286046999.3,N
1505627415.9,286046999.3,N
1505627435.7,286047000.6,N
1505627455.6,286047000.8,N
1505627475.4,286047000.9,N
1505627495.2,286046999.7,N
1505627515.1,286047000.9,N
1505627516.0,286047000.9,N
1505627535.8,286047003.5,N
1505627555.6,286047001.3,N
1505627575.5,286047005.0,N
1505627595.3,286047004.7,N
1505627615.1,286047000.2,N
1505627635.9,286046995.3,N
1505627655.7,286046997.5,N
1505627675.5,286046995.0,N
1505627695.3,286046995.1,N
1505627715.2,286047000.7,N
1505627735.0,286047001.0,N
1505627735.9,286047001.0,N
1505627755.7,286046997.0,N
1505627775.6,286047002.0,N
1505627795.4,286047004.3,N
1505627815.2,286047004.9,N
1505627835.1,286047001.4,N
1505627836.0,286047001.4,N
1505627855.8,286046998.5,N
1505627875.6,286047000.5,N
1505627895.5,286046999.7,N
1505627915.3,286046998.6,N
1505627935.1,286046996.6,N
1505627955.9,286046999.1,N
1505627975.7,286046999.4,N
1505627995.5,286046995.1,N
